{"data":{"norad_id":53902,"intl_designator":"2022-119S","name":"STARLINK-5021","alt_names":[],"object_type":"PAYLOAD","status":"ACTIVE","operator":null,"country":"US","launch_date":"2022-09-24","launch_site_code":"AFETR","launch_vehicle":null,"mission":null,"orbit_class":"UNKNOWN","rcs_meters":null,"size_class":null,"mass_kg":null,"dimensions":null,"purposes":["comms"],"wikipedia_slug":null,"has_3d_model":false,"image_url":null,"decayed_at":null,"tle_current":{"epoch":"2026-09-19T21:42:49.389120Z","epoch_age_seconds":137970,"freshness":"FRESH","line1":"1 53902U 22119S   26262.90473830  .00000244  00000+0  19632-4 0  9990","line2":"2 53902  53.1599 111.2563 0001334  97.9431 262.1722 15.31696007221854","mean_motion":15.31696007,"eccentricity":0.0001334,"inclination_deg":53.1599,"raan_deg":111.2563,"arg_perigee_deg":97.9431,"mean_anomaly_deg":262.1722,"bstar":1.9632e-5,"rev_number":22185,"period_min":94.013433045399,"perigee_km":469.83825639771,"apogee_km":471.66553995574,"semimajor_km":6848.8888981767,"source":"CELESTRAK","updated_at":"2026-09-21T09:00:33.031048Z"}}}